• Em Portugal
  • Lista de países
  • Para 7 dias
  • Temperatura da água
  • Mapas de satélite
  • Mapa do tempo
  • Widgets de tempo
  • user-avatar
    Iniciar Sessão

    Previsão horária em Diffa

    Hoje, 19 Outubro, Quinta-feira

    Tempo Temperatura Precipitação Vento Pressão Humidade
    00:00 +30°C° 0 mm 2 m/s 733 mmHg 16%
    01:00 +29°C° 0 mm 3 m/s 733 mmHg 17%
    02:00 +29°C° 0 mm 3 m/s 733 mmHg 18%
    03:00 +28°C° 0 mm 3 m/s 732 mmHg 18%
    04:00 +28°C° 0 mm 3 m/s 732 mmHg 19%
    05:00 +28°C° 0 mm 3 m/s 732 mmHg 20%
    06:00 +28°C° 0 mm 3 m/s 733 mmHg 20%
    07:00 +28°C° 0 mm 4 m/s 733 mmHg 20%
    08:00 +30°C° 0 mm 4 m/s 734 mmHg 17%
    09:00 +34°C° 0 mm 5 m/s 734 mmHg 15%
    10:00 +36°C° 0 mm 6 m/s 734 mmHg 12%
    11:00 +38°C° 0 mm 6 m/s 734 mmHg 11%
    12:00 +39°C° 0 mm 5 m/s 733 mmHg 11%
    13:00 +40°C° 0 mm 5 m/s 733 mmHg 10%
    14:00 +40°C° 0 mm 5 m/s 732 mmHg 10%
    15:00 +40°C° 0 mm 5 m/s 732 mmHg 10%
    16:00 +38°C° 0 mm 4 m/s 731 mmHg 10%
    17:00 +37°C° 0 mm 4 m/s 731 mmHg 11%
    18:00 +35°C° 0 mm 3 m/s 731 mmHg 12%
    19:00 +34°C° 0 mm 3 m/s 732 mmHg 13%
    20:00 +34°C° 0 mm 3 m/s 732 mmHg 13%
    21:00 +32°C° 0 mm 2 m/s 732 mmHg 14%
    22:00 +32°C° 0 mm 2 m/s 733 mmHg 14%
    23:00 +31°C° 0 mm 3 m/s 733 mmHg 15%

    Amanhã, 20 Outubro, Sexta-feira

    Tempo Temperatura Precipitação Vento Pressão Humidade
    00:00 +30°C° 0 mm 3 m/s 733 mmHg 16%
    01:00 +30°C° 0 mm 3 m/s 732 mmHg 16%
    02:00 +29°C° 0 mm 3 m/s 732 mmHg 18%
    03:00 +29°C° 0 mm 4 m/s 732 mmHg 19%
    04:00 +28°C° 0 mm 4 m/s 732 mmHg 20%
    05:00 +28°C° 0 mm 4 m/s 732 mmHg 20%
    06:00 +28°C° 0 mm 4 m/s 733 mmHg 21%
    07:00 +28°C° 0 mm 4 m/s 733 mmHg 21%
    08:00 +32°C° 0 mm 5 m/s 734 mmHg 19%
    09:00 +34°C° 0 mm 6 m/s 734 mmHg 16%
    10:00 +38°C° 0 mm 7 m/s 734 mmHg 13%
    11:00 +39°C° 0 mm 6 m/s 734 mmHg 12%
    12:00 +40°C° 0 mm 6 m/s 733 mmHg 11%
    13:00 +41°C° 0 mm 6 m/s 732 mmHg 10%
    14:00 +40°C° 0 mm 5 m/s 732 mmHg 10%
    15:00 +40°C° 0 mm 5 m/s 731 mmHg 10%
    16:00 +40°C° 0 mm 5 m/s 731 mmHg 10%
    17:00 +38°C° 0 mm 4 m/s 731 mmHg 11%
    18:00 +36°C° 0 mm 3 m/s 731 mmHg 12%
    19:00 +34°C° 0 mm 3 m/s 732 mmHg 13%
    20:00 +34°C° 0 mm 3 m/s 732 mmHg 14%
    21:00 +32°C° 0 mm 2 m/s 733 mmHg 14%
    22:00 +32°C° 0 mm 2 m/s 733 mmHg 15%
    23:00 +31°C° 0 mm 3 m/s 733 mmHg 16%

    Depois de amanhã, 21 Outubro, Sábado

    Tempo Temperatura Precipitação Vento Pressão Humidade
    00:00 +31°C° 0 mm 3 m/s 733 mmHg 17%
    01:00 +30°C° 0 mm 4 m/s 732 mmHg 18%
    02:00 +30°C° 0 mm 4 m/s 732 mmHg 20%
    03:00 +29°C° 0 mm 4 m/s 732 mmHg 22%
    04:00 +28°C° 0 mm 4 m/s 731 mmHg 23%
    05:00 +28°C° 0 mm 4 m/s 732 mmHg 24%
    06:00 +28°C° 0 mm 4 m/s 732 mmHg 24%
    07:00 +28°C° 0 mm 4 m/s 733 mmHg 24%
    08:00 +32°C° 0 mm 5 m/s 733 mmHg 20%
    09:00 +35°C° 0 mm 6 m/s 734 mmHg 16%
    10:00 +38°C° 0 mm 6 m/s 734 mmHg 12%
    11:00 +39°C° 0 mm 6 m/s 733 mmHg 11%
    12:00 +40°C° 0 mm 5 m/s 733 mmHg 10%
    13:00 +41°C° 0 mm 5 m/s 732 mmHg 9%
    14:00 +41°C° 0 mm 5 m/s 731 mmHg 9%
    15:00 +41°C° 0 mm 4 m/s 731 mmHg 9%
    16:00 +41°C° 0 mm 4 m/s 730 mmHg 9%
    17:00 +38°C° 0 mm 4 m/s 731 mmHg 9%
    18:00 +36°C° 0 mm 3 m/s 731 mmHg 10%
    19:00 +35°C° 0 mm 3 m/s 731 mmHg 11%
    20:00 +34°C° 0 mm 3 m/s 732 mmHg 11%
    21:00 +33°C° 0 mm 3 m/s 732 mmHg 11%
    22:00 +32°C° 0 mm 2 m/s 732 mmHg 12%
    23:00 +31°C° 0 mm 3 m/s 732 mmHg 13%

    22 Outubro, Domingo

    Tempo Temperatura Precipitação Vento Pressão Humidade
    00:00 +31°C° 0 mm 3 m/s 732 mmHg 14%
    01:00 +30°C° 0 mm 3 m/s 732 mmHg 15%
    02:00 +30°C° 0 mm 3 m/s 731 mmHg 17%
    03:00 +29°C° 0 mm 3 m/s 731 mmHg 19%
    04:00 +28°C° 0 mm 3 m/s 731 mmHg 21%
    05:00 +28°C° 0 mm 3 m/s 732 mmHg 21%
    06:00 +28°C° 0 mm 3 m/s 732 mmHg 21%
    07:00 +28°C° 0 mm 3 m/s 733 mmHg 21%
    08:00 +32°C° 0 mm 4 m/s 733 mmHg 18%
    09:00 +35°C° 0 mm 5 m/s 733 mmHg 14%
    10:00 +39°C° 0 mm 5 m/s 734 mmHg 11%
    11:00 +39°C° 0 mm 5 m/s 733 mmHg 10%
    12:00 +40°C° 0 mm 4 m/s 732 mmHg 9%
    13:00 +40°C° 0 mm 3 m/s 731 mmHg 8%
    14:00 +40°C° 0 mm 3 m/s 731 mmHg 8%
    15:00 +40°C° 0 mm 3 m/s 730 mmHg 8%
    16:00 +40°C° 0 mm 3 m/s 730 mmHg 8%
    17:00 +38°C° 0 mm 3 m/s 730 mmHg 9%
    18:00 +37°C° 0 mm 3 m/s 730 mmHg 9%
    19:00 +35°C° 0 mm 3 m/s 731 mmHg 10%
    20:00 +34°C° 0 mm 3 m/s 731 mmHg 11%
    21:00 +32°C° 0 mm 2 m/s 731 mmHg 11%
    22:00 +32°C° 0 mm 2 m/s 732 mmHg 11%
    23:00 +31°C° 0 mm 3 m/s 732 mmHg 12%

    23 Outubro, Segunda-feira

    Tempo Temperatura Precipitação Vento Pressão Humidade
    00:00 +31°C° 0 mm 3 m/s 731 mmHg 12%
    01:00 +31°C° 0 mm 3 m/s 731 mmHg 12%
    02:00 +30°C° 0 mm 3 m/s 731 mmHg 14%
    03:00 +30°C° 0 mm 3 m/s 731 mmHg 15%
    04:00 +29°C° 0 mm 3 m/s 731 mmHg 17%
    05:00 +29°C° 0 mm 3 m/s 731 mmHg 17%
    06:00 +29°C° 0 mm 3 m/s 732 mmHg 18%
    07:00 +29°C° 0 mm 3 m/s 732 mmHg 18%
    08:00 +33°C° 0 mm 4 m/s 732 mmHg 16%
    09:00 +36°C° 0 mm 4 m/s 733 mmHg 13%
    10:00 +39°C° 0 mm 5 m/s 733 mmHg 10%
    11:00 +40°C° 0 mm 5 m/s 732 mmHg 9%
    12:00 +41°C° 0 mm 4 m/s 731 mmHg 8%
    13:00 +41°C° 0 mm 4 m/s 731 mmHg 7%
    14:00 +41°C° 0 mm 4 m/s 730 mmHg 7%
    15:00 +41°C° 0 mm 4 m/s 730 mmHg 7%
    16:00 +41°C° 0 mm 4 m/s 729 mmHg 7%
    17:00 +40°C° 0 mm 4 m/s 730 mmHg 8%
    18:00 +37°C° 0 mm 3 m/s 730 mmHg 9%
    19:00 +35°C° 0 mm 3 m/s 730 mmHg 10%
    20:00 +34°C° 0 mm 3 m/s 730 mmHg 10%
    21:00 +34°C° 0 mm 3 m/s 731 mmHg 10%
    22:00 +32°C° 0 mm 2 m/s 731 mmHg 10%
    23:00 +33°C° 0 mm 3 m/s 731 mmHg 11%

    24 Outubro, Terça-feira

    Tempo Temperatura Precipitação Vento Pressão Humidade
    00:00 +31°C° 0 mm 3 m/s 730 mmHg 12%
    01:00 +31°C° 0 mm 3 m/s 730 mmHg 13%
    02:00 +30°C° 0 mm 3 m/s 730 mmHg 14%
    03:00 +29°C° 0 mm 3 m/s 730 mmHg 16%
    04:00 +29°C° 0 mm 3 m/s 730 mmHg 17%
    05:00 +29°C° 0 mm 3 m/s 730 mmHg 18%
    06:00 +29°C° 0 mm 3 m/s 731 mmHg 18%
    07:00 +29°C° 0 mm 3 m/s 731 mmHg 18%
    08:00 +33°C° 0 mm 4 m/s 732 mmHg 16%
    09:00 +35°C° 0 mm 4 m/s 732 mmHg 13%
    10:00 +39°C° 0 mm 5 m/s 732 mmHg 10%
    11:00 +40°C° 0 mm 4 m/s 731 mmHg 9%
    12:00 +40°C° 0 mm 4 m/s 731 mmHg 8%
    13:00 +40°C° 0 mm 3 m/s 730 mmHg 7%
    14:00 +40°C° 0 mm 3 m/s 730 mmHg 7%
    15:00 +40°C° 0 mm 3 m/s 729 mmHg 7%
    16:00 +40°C° 0 mm 3 m/s 729 mmHg 7%
    17:00 +38°C° 0 mm 3 m/s 729 mmHg 8%
    18:00 +37°C° 0 mm 3 m/s 730 mmHg 9%
    19:00 +35°C° 0 mm 3 m/s 730 mmHg 10%
    20:00 +34°C° 0 mm 3 m/s 730 mmHg 10%
    21:00 +34°C° 0 mm 3 m/s 731 mmHg 11%
    22:00 +32°C° 0 mm 2 m/s 731 mmHg 11%
    23:00 +33°C° 0 mm 3 m/s 731 mmHg 11%
    Mostrar mais